THOR ABLESTAR DEB, 329

Orbit data source: Space-Track

THOR ABLESTAR DEB, 329 is space debris in LEO originally from a launch on Thu, 29 Jun 1961 UTC launched from the Air Force Eastern Test Range (AFETR). Debris objects in space refer to the collection of defunct objects orbiting the Earth. Examples of debris include non-operational satellites, rocket bodies, and fragments generated from explosions, collisions, or faulty payload assembly.

Loading next visibility...
Identifier
329, 1961-015DF
Orbit
LEO
Country
Flag of USUS
Related business
Manufacturer
Unknown
Mission
Spacecraft
Bus & Motor
Unknown
Mass
Unknown
Launch date (UTC)
1961-06-29 (64 years ago)
Launch vehicle
Unknown
Launch site
Air Force Eastern Test Range (AFETR)
Object type
Payload
Rocket body
Debris
Shape & HBR
Unknown shape, 0.1 m
Radar Cross Section
Small (<0.1 m²)

Expand to show TLE details & history
Last TLE update: 8 hours ago

TLE from 8 hours ago
0 THOR ABLESTAR DEB
1   329U 61015DF  25295.75845183  .00000131  00000-0  23576-3 0  9992
2   329  66.7805 210.9305 0112658 156.5009 233.8456 13.66038029197586
Epoch: 2025-10-22T18:12Z
TLE epoch observation values (Epoch: 2025-10-22T18:12:10.238Z)
Latitude
26.78878°
Longitude
-81.09549°
Altitude
1,065.985 km
Speed
7.297 km/s
True Right ascension
14h 53m 29s
True Declination
26° 39' 23"
Sunlit
Object was in daylight at epoch
Visualization orbit readout
Latitude
Unknown
Longitude
Unknown
Altitude
Unknown
Speed
Unknown
Apparent Right ascension
Unknown
Apparent Declination
Unknown
Sunlit
N/A
Visualization observer readout
Local Sidereal Time
21:31:35
Azimuth
Unknown
Elevation
Unknown
Doppler factor
Unknown
Orbital elements
Apogee altitude
1,095.503 km
Perigee altitude
928.985 km
Semi-major axis
7,390.381 km
Eccentricity
0.01127
Inclination
66.7805°
RAAN
210.9305°
Arg. of periapsis
156.5009°
True anomaly
232.81188°
Mean anomaly
233.8456°
Eccentric anomaly
233.32788°
Mean motion
3.4162 °/min
Orbital period
105.38 mins
BSTAR
0.00023576

Documentation

Showing up to 5 results
|